Powrót do katalogu

SLOSHSAT

LostNaukaHEO
NORAD 28544·PAYLOAD·🇪🇺 EU

Wystrzelony Feb 12, 2005 z Guiana Space Centre

Loading…

Następne Przeloty (najbliższe 24 godziny)

TLE

NieaktualneSource: Space-Track

Epoka: Apr 4, 2026, 06:57 UTC

1 28544U 05005C   26094.28998134  .00004949  00000-0  10691-2 0  9993
2 28544   7.2238  29.6756 6956334 209.4165  80.5329  2.70296939189186

Śledź SLOSHSAT w czasie rzeczywistym z AllMySat

Download on the App Store